FW4679 Weather Reports


Display with metric or nautical units.
time (UTC)temp
F
wind
direction
speed
MPH
gust
MPH
rain 1hr
in
rain 24hr
in
rain mn
in
humidity
%
barometer
mb
20260906143049 70 76 5.0 14.0 0.00 0.02 0.01 71 1021.4
20260906141544 67 59 6.0 14.0 0.00 0.02 0.01 75 1021.3
20260906140046 66 65 6.0 12.0 0.00 0.02 0.01 79 1021.3
20260906134537 65 26 3.0 8.0 0.00 0.02 0.01 84 1021.3
20260906133038 64 55 3.0 8.0 0.00 0.02 0.01 87 1021.3
20260906131531 63 59 3.0 12.0 0.00 0.02 0.01 88 1021.1
20260906130028 62 317 2.0 5.0 0.00 0.02 0.01 89 1021.3
20260906124535 62 264 2.0 4.0 0.00 0.02 0.01 89 1021.1
20260906123033 61 261 2.0 4.0 0.00 0.02 0.01 90 1020.9
20260906121524 61 261 2.0 4.0 0.00 0.02 0.01 90 1020.9
20260906120022 60 259 0.0 3.0 0.00 0.02 0.01 91 1020.8
20260906114523 60 259 1.0 2.0 0.00 0.02 0.01 91 1020.7
20260906113021 60 259 1.0 2.0 0.00 0.02 0.01 91 1020.5
20260906111520 60 259 0.0 3.0 0.01 0.02 0.01 90 1020.4
20260906110023 60 259 0.0 1.0 0.01 0.02 0.01 91 1020.4
20260906104520 60 259 0.0 2.0 0.01 0.02 0.01 91 1020.3
20260906103038 59 259 0.0 2.0 0.01 0.02 0.01 91 1020.1
20260906101517 59 259 0.0 3.0 0.00 0.01 0.00 91 1019.9
20260906100025 59 259 0.0 1.0 0.00 0.01 0.00 91 1019.9
20260906094514 58 259 1.0 3.0 0.00 0.01 0.00 91 1019.6
20260906093011 58 259 0.0 2.0 0.00 0.01 0.00 90 1019.4
20260906091510 58 259 1.0 3.0 0.00 0.01 0.00 90 1019.2
20260906090010 58 259 1.0 4.0 0.00 0.01 0.00 90 1019.1
20260906084510 58 159 1.0 3.0 0.00 0.01 0.00 90 1019.0
20260906083009 58 159 2.0 3.0 0.00 0.01 0.00 89 1018.9
20260906081507 58 159 0.0 3.0 0.00 0.01 0.00 89 1018.9
20260906080008 58 159 0.0 2.0 0.00 0.01 0.00 89 1018.8
20260906074505 59 159 1.0 2.0 0.00 0.01 0.00 89 1018.7
20260906073102 59 159 0.0 2.0 0.00 0.01 0.00 89 1018.7
20260906071501 59 159 1.0 2.0 0.00 0.01 0.00 88 1018.9
20260906070001 59 159 2.0 5.0 0.00 0.02 0.00 88 1018.9
20260906064559 60 159 0.0 1.0 0.00 0.02 0.00 88 1018.8
20260906063057 60 159 0.0 1.0 0.00 0.02 0.00 88 1018.9
20260906061608 60 159 0.0 2.0 0.00 0.02 0.00 88 1019.1
20260906054557 60 159 0.0 2.0 0.00 0.02 0.00 88 1019.2
20260906053055 60 159 1.0 4.0 0.00 0.02 0.00 88 1019.1
20260906051604 60 159 1.0 2.0 0.00 0.02 0.00 88 1019.2
20260906050053 61 159 1.0 3.0 0.00 0.02 0.00 88 1019.2
20260906044552 61 159 2.0 4.0 0.00 0.02 0.00 87 1019.2
20260906043050 61 159 0.0 2.0 0.00 0.02 0.00 87 1019.0
20260906041550 61 159 4.0 5.0 0.00 0.02 0.00 87 1019.0
20260906040047 62 152 2.0 5.0 0.00 0.02 0.00 86 1019.0
20260906034545 62 69 0.0 2.0 0.00 0.02 0.02 85 1018.8
20260906033046 63 69 2.0 4.0 0.00 0.02 0.02 84 1018.7
20260906031547 63 69 0.0 2.0 0.00 0.02 0.02 84 1018.7
20260906030047 64 69 0.0 3.0 0.00 0.02 0.02 83 1018.5
20260906024543 64 69 1.0 3.0 0.00 0.02 0.02 83 1018.7
20260906023048 65 29 0.0 2.0 0.00 0.02 0.02 82 1018.6
20260906021545 65 29 1.0 3.0 0.00 0.02 0.02 81 1018.5
20260906020040 66 29 0.0 2.0 0.00 0.02 0.02 80 1018.5
20260906014547 67 29 1.0 3.0 0.00 0.02 0.02 78 1018.3
20260906013044 68 29 1.0 3.0 0.00 0.02 0.02 77 1018.2
20260906011537 69 29 1.0 2.0 0.00 0.02 0.02 75 1018.2
20260906010037 69 29 2.0 3.0 0.00 0.02 0.02 74 1018.2
20260906004536 70 29 0.0 1.0 0.00 0.02 0.02 73 1018.1
20260906003035 70 29 0.0 3.0 0.00 0.02 0.02 71 1017.7
20260906001535 71 29 0.0 3.0 0.00 0.02 0.02 70 1017.5
20260906000034 71 29 0.0 5.0 0.00 0.02 0.02 70 1017.7
20260905234535 72 55 3.0 6.0 0.00 0.02 0.02 68 1017.6
20260905233033 73 360 0.0 3.0 0.00 0.02 0.02 67 1017.7
20260905231533 73 40 2.0 10.0 0.00 0.02 0.02 66 1017.7
20260905230034 73 30 3.0 7.0 0.00 0.02 0.02 65 1017.5
20260905224533 74 38 1.0 6.0 0.00 0.02 0.02 64 1017.3
20260905223031 74 339 3.0 10.0 0.00 0.02 0.02 62 1017.5
20260905221530 74 9 2.0 13.0 0.00 0.02 0.02 61 1017.2
20260905220030 74 18 4.0 9.0 0.00 0.02 0.02 62 1017.2
20260905214529 74 11 2.0 8.0 0.00 0.02 0.02 62 1016.9
20260905213029 74 336 2.0 5.0 0.00 0.02 0.02 63 1016.7
20260905211528 74 350 2.0 6.0 0.01 0.02 0.02 63 1016.8
20260905210029 74 9 3.0 8.0 0.01 0.02 0.02 62 1016.7
20260905204528 75 340 6.0 11.0 0.01 0.02 0.02 61 1016.7
20260905203027 75 321 6.0 11.0 0.01 0.02 0.02 61 1016.6
20260905201526 74 339 4.0 10.0 0.00 0.01 0.01 62 1016.7
20260905200033 74 344 3.0 12.0 0.00 0.01 0.01 63 1016.8
20260905194526 75 51 1.0 7.0 0.00 0.01 0.01 58 1016.7
20260905193026 75 328 3.0 9.0 0.00 0.01 0.01 61 1016.7
20260905191535 74 338 5.0 9.0 0.00 0.01 0.01 62 1016.8
20260905190033 75 28 2.0 9.0 0.00 0.01 0.01 60 1016.8
20260905184528 74 340 3.0 10.0 0.00 0.02 0.01 59 1016.8
20260905183020 74 346 3.0 13.0 0.00 0.02 0.01 62 1016.8
20260905181520 74 336 5.0 9.0 0.00 0.02 0.01 61 1016.8
20260905180025 74 340 2.0 6.0 0.00 0.02 0.01 63 1016.8
20260905174525 74 308 5.0 11.0 0.00 0.02 0.01 60 1016.8
20260905173017 74 355 1.0 9.0 0.00 0.02 0.01 61 1016.9
20260905171518 73 23 1.0 8.0 0.00 0.02 0.01 61 1017.1
20260905170019 73 355 2.0 6.0 0.00 0.02 0.01 65 1017.2
20260905164516 72 331 4.0 9.0 0.00 0.02 0.01 64 1017.1
20260905163015 73 360 2.0 8.0 0.00 0.02 0.01 63 1017.2
20260905161515 74 60 3.0 8.0 0.00 0.02 0.01 63 1017.2
20260905160019 72 43 3.0 10.0 0.00 0.02 0.01 64 1017.2
20260905154513 73 336 2.0 8.0 0.00 0.02 0.01 64 1017.4
20260905153011 72 333 2.0 10.0 0.00 0.02 0.01 65 1017.4
20260905151513 72 331 4.0 10.0 0.00 0.02 0.01 66 1017.5
20260905150006 71 350 4.0 10.0 0.00 0.02 0.01 69 1017.5
20260905144515 70 336 6.0 16.0 0.00 0.02 0.01 69 1017.4